Location: ????
(33.1659°N, 35.6604°E)
Time: 19:13:15
(UTC+00:00)

Cosmos 2360 Rocket - Pass Details

Date: 20 September 2019
Orbit: 833 x 846 km, 71.0° (Epoch: 15 October)

Event Time Altitude Azimuth Distance (km) Brightness Sun altitude
Rises 16:37:16 0° 327° (NNW) 3,399 6.0 -13.3°
Reaches altitude 10° 16:39:57 10° 317° (NW) 2,463 5.4 -13.8°
Maximum altitude 16:44:50 31° 257° (WSW) 1,444 4.1 -14.8°
Drops below altitude 10° 16:49:43 10° 197° (SSW) 2,455 4.7 -15.8°
Sets 16:52:24 0° 187° (S) 3,387 5.3 -16.4°
